Campo, CA

2:06 AM PST on December 08, 2019 (GMT -0800)
Campo

Weather History for KCZZ - August, 2019

Change the Weather History Date:

Thursday, August 22, 2019

  Actual Average Record
Temperature  
Mean Temperature 73 °F 74 °F  
Max Temperature 97 °F 94 °F 103 °F (1998)
Min Temperature 49 °F 53 °F 37 °F (1968)
Degree Days  
Heating Degree Days 0 0  
Month to date heating degree days 0 0  
Since 1 June heating degree days 42 63  
Since 1 July heating degree days 6 7  
Cooling Degree Days 8 9  
Month to date cooling degree days 211 198  
Year to date cooling degree days 539 570  
Since 1 June cooling degree days 537 540  
Growing Degree Days 24 (Base 50)    
Moisture  
Dew Point 33 °F    
Average Humidity 29    
Maximum Humidity 52    
Minimum Humidity 5    
Precipitation  
Precipitation 0.00 in 0.03 in 0.03 in (1982)
Month to date precipitation 0.00 0.51  
Year to date precipitation 12.82 10.98  
Sea Level Pressure  
Sea Level Pressure 29.73 in    
Wind  
Wind Speed 8 mph (NE)    
Max Wind Speed 18 mph    
Max Gust Speed 23 mph    
T = Trace of Precipitation, MM = Missing Value Source: NWS Daily Summary

Daily Weather History Graph

Daily Weather History Graph

Search for Another Location

Airport or City:

Astronomy

Aug. 22, 2019 Rise Set
Actual Time 6:14 AM PDT 7:22 PM PDT
Civil Twilight 5:48 AM PDT 7:48 PM PDT
Nautical Twilight 5:18 AM PDT 8:18 PM PDT
Astronomical Twilight 4:46 AM PDT 8:50 PM PDT
Moon 11:38 PM PDT (8/22) 12:32 PM PDT (8/22)
Length of Visible Light 13h 59m
Length of Day
13h 08m
Waning Gibbous, 58% of the Moon is Illuminated
Aug 22
Waning Gibbous
Aug 23
Last Quarter
Aug 30
New
Sep 5
First Quarter
Sep 13
Full

Hourly Weather History & Observations

Time (PDT) Temp. Dew Point Humidity Pressure Visibility Wind Dir Wind Speed Gust Speed Precip Events Conditions
12:52 AM 59.0 °F 41.0 °F 51% 29.74 in - NE 5.8 mph - N/A   Unknown
1:52 AM 57.0 °F 39.0 °F 51% 29.74 in - NE 5.8 mph - N/A   Unknown
2:52 AM 55.0 °F 35.1 °F 47% 29.73 in - NE 8.1 mph - N/A   Unknown
3:52 AM 54.0 °F 35.1 °F 49% 29.73 in - NE 6.9 mph - N/A   Unknown
4:52 AM 53.1 °F 32.0 °F 45% 29.73 in - NE 6.9 mph - N/A   Unknown
5:52 AM 52.0 °F 30.0 °F 43% 29.73 in - NE 6.9 mph - N/A   Unknown
6:52 AM 53.1 °F 27.0 °F 37% 29.75 in - NE 5.8 mph - N/A   Unknown
7:52 AM 66.9 °F 30.9 °F 26% 29.75 in - North 4.6 mph - N/A   Unknown
8:52 AM 80.1 °F 30.9 °F 17% 29.74 in - Calm Calm - N/A   Unknown
9:52 AM 89.1 °F 23.0 °F 9% 29.73 in - SSW 5.8 mph - N/A   Unknown
10:52 AM 93.0 °F 14.0 °F 5% 29.74 in - SSW 11.5 mph - N/A   Unknown
11:52 AM 93.9 °F 19.0 °F 7% 29.73 in - SW 10.4 mph - N/A   Unknown
12:52 PM 95.0 °F 24.1 °F 8% 29.72 in - West 11.5 mph 19.6 mph N/A   Unknown
1:52 PM 96.1 °F 25.0 °F 8% 29.71 in - SW 10.4 mph 18.4 mph N/A   Unknown
2:52 PM 97.0 °F 33.1 °F 11% 29.68 in - SW 16.1 mph 21.9 mph N/A   Unknown
3:52 PM 93.9 °F 42.1 °F 17% 29.68 in - SW 15.0 mph - N/A   Unknown
4:52 PM 89.1 °F 45.0 °F 22% 29.70 in - SW 16.1 mph - N/A   Unknown
5:52 PM 84.9 °F 51.1 °F 31% 29.72 in - SW 13.8 mph - N/A   Unknown
8:52 PM 64.0 °F 46.0 °F 52% 29.73 in - NE 6.9 mph - N/A   Unknown
10:52 PM 57.9 °F 39.0 °F 49% 29.73 in - NE 5.8 mph - N/A   Unknown
11:52 PM 55.9 °F 34.0 °F 44% 29.75 in - NE 5.8 mph - N/A   Unknown